Weather History for Alexandria, LA

Change the Weather History Date:

Saturday, February 2, 2013

  Actual Average Record
Temperature  
Mean Temperature 53 °F 50 °F  
Max Temperature 71 °F 60 °F 82 °F (1989)
Min Temperature 35 °F 39 °F 7 °F (1951)
Degree Days  
Heating Degree Days 12 16  
Month to date heating degree days 28 32  
Since 1 July heating degree days 1136 1323  
Growing Degree Days 4 (Base 50)    
Moisture  
Dew Point 44 °F    
Average Humidity 67    
Maximum Humidity 92    
Minimum Humidity 41    
Precipitation  
Precipitation 0.00 in 0.16 in 5.20 in (1896)
Month to date precipitation 0.00 0.32  
Year to date precipitation 11.05 5.54  
Snow  
Snow 0.00 in - 0.00 in ()
Month to date snowfall 0.0  
Since 1 July snowfall 0.0  
Snow Depth 0.00 in    
Sea Level Pressure  
Sea Level Pressure 30.24 in    
Wind  
Wind Speed 5 mph (SSW)    
Max Wind Speed 14 mph    
Max Gust Speed 18 mph    
Visibility 10 miles    
Events      
T = Trace of Precipitation, MM = Missing Value Source: NWS Daily Summary

Daily Weather History Graph

Daily Weather History Graph

Search for Another Location

Airport:

Trip Planner

Search our weather history database for the weather conditions in past years. The results will help you decide how hot, cold, wet, or windy it might be!

Date:

Astronomy

Feb. 02, 2013 Rise Set
Actual Time 7:01 AM CST 5:46 PM CST
Civil Twilight 6:36 AM CST 6:11 PM CST
Nautical Twilight 6:07 AM CST 6:40 PM CST
Astronomical Twilight 5:38 AM CST 7:09 PM CST
Moon No Moon Rise 10:42 AM CST (2/2)
Length of Visible Light 11h 35m
Length of Day
10h 44m
Waning Gibbous, 59% of the Moon is Illuminated
Feb 2
Waning Gibbous
Feb 3
Last Quarter
Feb 10
New
Feb 17
First Quarter
Feb 25
Full

Hourly Weather History & Observations

Time (CST) Temp. Windchill Dew Point Humidity Pressure Visibility Wind Dir Wind Speed Gust Speed Precip Events Conditions
12:53 AM 37.9 °F - 30.9 °F 76% 30.33 in 10.0 mi Calm Calm - N/A   Clear
1:53 AM 37.9 °F 35.5 °F 30.9 °F 76% 30.31 in 10.0 mi SSE 3.5 mph - N/A   Clear
3:53 AM 37.0 °F 32.4 °F 32.0 °F 82% 30.28 in 10.0 mi SE 5.8 mph - N/A   Clear
4:53 AM 36.0 °F 31.1 °F 32.0 °F 86% 30.27 in 10.0 mi SE 5.8 mph - N/A   Clear
6:53 AM 36.0 °F 31.1 °F 34.0 °F 93% 30.28 in 10.0 mi ESE 5.8 mph - N/A   Clear
7:53 AM 42.1 °F 39.2 °F 37.9 °F 85% 30.28 in 10.0 mi SE 4.6 mph - N/A   Clear
8:53 AM 50.0 °F - 43.0 °F 77% 30.29 in 9.0 mi SSE 6.9 mph - N/A   Clear
9:53 AM 59.0 °F - 43.0 °F 55% 30.29 in 10.0 mi SSE 6.9 mph - N/A   Clear
10:53 AM 64.0 °F - 46.9 °F 54% 30.28 in 10.0 mi SSW 9.2 mph - N/A   Clear
11:53 AM 66.0 °F - 48.9 °F 54% 30.25 in 10.0 mi SW 10.4 mph - N/A   Clear
12:53 PM 69.1 °F - 48.9 °F 49% 30.22 in 10.0 mi SW 10.4 mph - N/A   Clear
1:53 PM 70.0 °F - 48.0 °F 46% 30.19 in 10.0 mi SW 9.2 mph - N/A   Clear
2:53 PM 71.1 °F - 46.9 °F 42% 30.17 in 10.0 mi SW 8.1 mph - N/A   Clear
3:53 PM 71.1 °F - 48.0 °F 44% 30.16 in 10.0 mi West 4.6 mph - N/A   Clear
4:53 PM 70.0 °F - 48.0 °F 46% 30.17 in 10.0 mi West 5.8 mph - N/A   Mostly Cloudy
5:53 PM 66.9 °F - 48.0 °F 51% 30.18 in 10.0 mi WNW 4.6 mph - N/A   Mostly Cloudy
6:53 PM 61.0 °F - 50.0 °F 67% 30.20 in 10.0 mi Calm Calm - N/A   Clear
7:53 PM 57.9 °F - 48.9 °F 72% 30.21 in 10.0 mi Calm Calm - N/A   Clear
8:53 PM 55.9 °F - 48.9 °F 77% 30.22 in 10.0 mi Calm Calm - N/A   Mostly Cloudy
9:53 PM 55.9 °F - 48.9 °F 77% 30.24 in 10.0 mi North 4.6 mph - N/A   Mostly Cloudy
10:53 PM 55.9 °F - 48.9 °F 77% 30.26 in 10.0 mi NNW 3.5 mph - N/A   Overcast
11:53 PM 53.1 °F - 50.0 °F 89% 30.27 in 10.0 mi Calm Calm - N/A   Scattered Clouds